Hourly Data Report for December 14, 2002

TORONTO CITY
ONTARIO

43°40'00.000" N
79°24'00.000" W
112.50 m
6158355
71508
XTO

Download Data

Hourly Data (December 2002)
Hourly Data Report for December 14, 2002
TIME
LST
Temp Definition
°C
Dew Point Definition
°C
Rel Hum Definition
%
Precip. Amount Definition
mm

Wind Dir Definition
10's deg

Wind Spd Definition
km/h
Visibility Definition
km
Stn Press Definition
kPa
Hmdx Definition


Wind Chill Definition


Weather Definition


00:00 3.2 2.2 93   LegendMM LegendMM LegendMM 99.24     LegendNANA
01:00 2.5 1.6 94   LegendMM LegendMM LegendMM 99.15     LegendNANA
02:00 2.0 1.1 94   LegendMM LegendMM LegendMM 99.08     LegendNANA
03:00 1.8 1.1 95   LegendMM LegendMM LegendMM 99.03     LegendNANA
04:00 2.0 1.3 95   LegendMM LegendMM LegendMM 98.92     LegendNANA
05:00 2.4 1.5 94   LegendMM LegendMM LegendMM 98.85     LegendNANA
06:00 2.4 1.2 92   LegendMM LegendMM LegendMM 98.82     LegendNANA
07:00 2.3 1.3 93   LegendMM LegendMM LegendMM 98.83     LegendNANA
08:00 2.4 1.4 93   LegendMM LegendMM LegendMM 98.84     LegendNANA
09:00 2.5 1.3 92   LegendMM LegendMM LegendMM 98.87     LegendNANA
10:00 3.0 1.4 89   LegendMM LegendMM LegendMM 98.96     LegendNANA
11:00 3.0 1.2 88   LegendMM LegendMM LegendMM 98.96     LegendNANA
12:00 4.5 1.7 82   LegendMM LegendMM LegendMM 98.90     LegendNANA
13:00 5.4 1.3 75   LegendMM LegendMM LegendMM 98.85     LegendNANA
14:00 5.7 1.1 72   LegendMM LegendMM LegendMM 98.91     LegendNANA
15:00 5.5 0.5 70   LegendMM LegendMM LegendMM 98.97     LegendNANA
16:00 4.7 0.5 74   LegendMM LegendMM LegendMM 99.06     LegendNANA
17:00 4.2 0.7 78   LegendMM LegendMM LegendMM 99.17     LegendNANA
18:00 4.1 1.0 80   LegendMM LegendMM LegendMM 99.25     LegendNANA
19:00 3.8 0.7 80   LegendMM LegendMM LegendMM 99.29     LegendNANA
20:00 3.6 0.3 79   LegendMM LegendMM LegendMM 99.36     LegendNANA
21:00 3.4 -0.2 77   LegendMM LegendMM LegendMM 99.41     LegendNANA
22:00 3.6 -1.8 68   LegendMM LegendMM LegendMM 99.42     LegendNANA
23:00 3.5 -1.9 68   LegendMM LegendMM LegendMM 99.45     LegendNANA

Notes on Data Quality.

Legend

  • E = Estimated
  • M = Missing
  • NA = Not Available*
  • [empty] = Indicates an unobserved value
Date modified: